Home > Time Zones > World Clock > Weather > Iran > Rasht > Past weeks

Flag for Iran Weather past 2 weeks in Rasht, Iran

Now
79 °F

Partly sunny.


Feels Like: 82 °F
Forecast: 74 / 90 °F
Wind: 7 mph from West

Location: Rasht Airport

Current Time: Jul 4, 2015 at 8:40:26 AM

Latest Report: Jul 4, 2015 at 8:00 AM


Visibility: 5 mi

Pressure: 29.95 "Hg

Humidity: 84%

Dew point: 73 °F

Location of RashtLocation

Historic Weather in Rasht — Graph

°F

Rasht temperature yesterday

Maximum temperature yesterday: 88 °F (at 1:30 PM)
Minimum temperature yesterday: 73 °F (at 6:30 AM)
Average temperature yesterday: 83 °F

Past Weeks' High & Low Weather Summary

 TemperatureHumidityPressure
High93 °F (Jun 22, 4:30 PM)100% (Jun 20, 2:30 AM)30.07 "Hg (Jun 20, 2:30 AM)
Low66 °F (Jun 19, 6:30 AM)36% (Jun 22, 4:30 PM)29.50 "Hg (Jun 26, 4:30 PM)
Average84 °F65%29.72 "Hg
* Reported Jun 19 6:30 AM — Jul 4 7:00 AM, Rasht, Weather by CustomWeather, © 2015

Note: Actual official high and low records may vary slightly from our data, if they occured in-between our weather recording intervals... More about our weather records

Advertising

Rasht weather history for previous 24 hours

 ConditionsComfort  
Time TempWeatherWind HumidityBarometerVisibility
7:00 AM
Sat, Jul 4
77 °FPartly cloudy.7 mph94%29.95 "Hg5 mi
6:30 AM77 °FPartly cloudy.7 mph94%29.95 "Hg5 mi
12:30 AM79 °FClear.No wind84%29.83 "Hg4 mi
11:30 PM
Fri, Jul 3
77 °FClear.No wind89%29.80 "Hg4 mi
10:30 PM77 °FClear.No wind89%29.80 "Hg4 mi
10:00 PM79 °FPassing clouds.No wind84%29.80 "Hg4 mi
9:30 PM79 °FPassing clouds.No wind84%29.80 "Hg4 mi
9:00 PM81 °FScattered clouds.No wind74%29.77 "Hg4 mi
8:30 PM82 °FScattered clouds.No wind74%29.77 "Hg4 mi
8:00 PM84 °FScattered clouds.5 mph70%29.77 "Hg4 mi
7:30 PM84 °FScattered clouds.5 mph70%29.77 "Hg4 mi
7:00 PM86 °FScattered clouds.5 mph66%29.77 "Hg4 mi
6:30 PM86 °FScattered clouds.9 mph66%29.77 "Hg4 mi
6:00 PM86 °FPassing clouds.7 mph62%29.80 "HgN/A
5:30 PM88 °FPassing clouds.5 mph59%29.80 "HgN/A
5:00 PM88 °FPassing clouds.7 mph59%29.80 "HgN/A
4:30 PM88 °FPassing clouds.9 mph59%29.80 "HgN/A
4:00 PM88 °FPassing clouds.7 mph62%29.80 "HgN/A
3:30 PM88 °FPassing clouds.9 mph62%29.80 "HgN/A
3:00 PM88 °FPassing clouds.7 mph59%29.83 "HgN/A
2:30 PM88 °FPassing clouds.7 mph59%29.83 "HgN/A
2:00 PM88 °FPassing clouds.5 mph59%29.83 "HgN/A
1:30 PM88 °FPassing clouds.5 mph59%29.83 "HgN/A
1:00 PM86 °FPassing clouds.7 mph59%29.86 "HgN/A
12:30 PM86 °FPassing clouds.7 mph59%29.86 "HgN/A
12:00 PM84 °FPassing clouds.5 mph66%29.86 "HgN/A
11:30 AM84 °FPassing clouds.No wind66%29.86 "HgN/A
11:00 AM82 °FPassing clouds.No wind70%29.86 "HgN/A
10:00 AM82 °FPassing clouds.No wind74%29.89 "HgN/A
9:30 AM82 °FPassing clouds.No wind74%29.89 "HgN/A
9:00 AM81 °FSunny.No wind74%29.89 "Hg10 mi
8:30 AM81 °FSunny.No wind74%29.89 "Hg10 mi
8:00 AM77 °FSunny.5 mph83%29.86 "Hg10 mi
Weather by CustomWeather, © 2015

See weather overviewHow to use our weather pages